Year,Month,Day,Hour,Minute,Value (Times are PST for temperature in C)
2020,08,28,00,46,19.40
2020,08,28,00,50,13.10
2020,08,28,00,51,13.20
2020,08,28,00,52,13.00
2020,08,28,00,53,13.20
2020,08,28,00,54,13.30
2020,08,28,00,55,13.50
2020,08,28,00,56,13.90
2020,08,28,01,15,12.80
2020,08,28,01,16,12.60
2020,08,28,01,17,12.60
2020,08,28,01,18,12.60
2020,08,28,01,46,12.80
2020,08,28,01,47,13.00
2020,08,28,01,48,13.20
2020,08,28,01,51,12.90
2020,08,28,01,52,13.80
2020,08,28,02,23,12.50
2020,08,28,02,24,12.80
2020,08,28,02,25,13.20
2020,08,28,02,26,12.70
2020,08,28,02,27,12.50
2020,08,28,02,28,12.60
2020,08,28,02,29,12.50
2020,08,28,02,30,12.60
2020,08,28,02,31,29.30
2020,08,28,02,32,12.50
2020,08,28,02,33,12.70
2020,08,28,02,34,13.10
2020,08,28,02,35,12.60
2020,08,28,02,39,12.60
2020,08,28,02,40,13.00
2020,08,28,02,41,13.70
2020,08,28,02,43,21.10
2020,08,28,02,44,27.00
2020,08,28,02,45,19.30
2020,08,28,02,47,13.30
2020,08,28,02,48,12.80
2020,08,28,02,49,12.40
2020,08,28,02,50,12.60
2020,08,28,02,51,13.90
2020,08,28,02,52,16.30
2020,08,28,02,53,13.60
2020,08,28,02,54,12.30
2020,08,28,02,55,12.40
2020,08,28,02,56,12.40
2020,08,28,02,57,12.40
2020,08,28,02,58,12.50
2020,08,28,02,59,12.40
2020,08,28,03,00,12.50
2020,08,28,03,01,12.40
2020,08,28,03,02,12.40
2020,08,28,03,03,12.40
2020,08,28,03,04,12.20
2020,08,28,03,05,12.20
2020,08,28,03,06,12.30
2020,08,28,03,07,12.20
2020,08,28,03,08,12.10
2020,08,28,03,09,12.20
2020,08,28,03,34,14.30
2020,08,28,03,35,13.00
2020,08,28,03,36,12.40
2020,08,28,03,37,12.00
2020,08,28,03,38,12.10
2020,08,28,03,39,12.20
2020,08,28,03,40,12.10
2020,08,28,03,41,21.10
2020,08,28,03,43,12.10
2020,08,28,03,51,13.00
2020,08,28,03,53,11.90
2020,08,28,03,54,12.10
2020,08,28,03,55,12.10
2020,08,28,03,56,12.10
2020,08,28,03,57,12.10
2020,08,28,03,58,12.20
2020,08,28,03,59,12.20
2020,08,28,04,00,12.30
2020,08,28,04,01,12.20
2020,08,28,04,02,12.30
2020,08,28,04,03,12.30
2020,08,28,04,16,12.10
2020,08,28,04,17,12.20
2020,08,28,04,18,12.20
2020,08,28,04,19,12.00
2020,08,28,04,20,12.00
2020,08,28,04,21,12.00
2020,08,28,04,22,12.00
2020,08,28,04,23,12.10
2020,08,28,04,24,12.10
2020,08,28,04,25,12.20
2020,08,28,04,26,12.20
2020,08,28,04,27,12.30
2020,08,28,04,28,12.20
2020,08,28,04,29,12.20
2020,08,28,04,30,12.10
2020,08,28,04,31,12.20
2020,08,28,04,32,12.10
2020,08,28,04,33,11.90
2020,08,28,04,34,12.10
2020,08,28,04,35,12.10
2020,08,28,04,36,12.00
2020,08,28,04,37,11.80
2020,08,28,04,38,11.80
2020,08,28,04,39,11.80
2020,08,28,04,40,11.90
2020,08,28,04,41,11.80
2020,08,28,04,42,11.80
2020,08,28,04,43,12.00
2020,08,28,04,44,11.70
2020,08,28,04,45,11.80
2020,08,28,04,46,11.70
2020,08,28,04,47,11.70
2020,08,28,04,48,11.80
2020,08,28,04,49,11.90
2020,08,28,04,50,12.10
2020,08,28,04,51,11.80
2020,08,28,04,52,12.80
2020,08,28,04,53,12.80
2020,08,28,04,54,12.10
2020,08,28,04,55,11.80
2020,08,28,04,56,12.10
2020,08,28,04,57,12.00
2020,08,28,04,58,11.70
2020,08,28,04,59,11.80
2020,08,28,05,03,12.30
2020,08,28,05,04,13.50
2020,08,28,05,05,13.00
2020,08,28,05,06,12.10
2020,08,28,05,07,11.90
2020,08,28,05,08,12.00
2020,08,28,05,09,12.10
2020,08,28,05,10,12.00
2020,08,28,05,11,11.90
2020,08,28,05,12,11.90
2020,08,28,05,13,11.90
2020,08,28,05,14,11.90
2020,08,28,05,15,12.00
2020,08,28,05,16,11.90
2020,08,28,05,17,12.00
2020,08,28,05,18,12.00
2020,08,28,05,21,25.10
2020,08,28,05,23,11.90
2020,08,28,05,24,12.10
2020,08,28,05,25,12.20
2020,08,28,05,26,12.00
2020,08,28,05,27,12.10
2020,08,28,05,28,12.10
2020,08,28,05,29,11.90
2020,08,28,05,30,11.90
2020,08,28,05,31,11.90
2020,08,28,05,32,11.90
2020,08,28,05,33,11.90
2020,08,28,05,34,11.80
2020,08,28,05,35,12.00
2020,08,28,05,36,12.40
2020,08,28,05,37,12.00
2020,08,28,05,38,11.80
2020,08,28,05,39,12.10
2020,08,28,05,40,12.10
2020,08,28,05,41,12.20
2020,08,28,05,42,12.40
2020,08,28,05,43,12.40
2020,08,28,05,50,11.80
2020,08,28,05,51,12.10
2020,08,28,05,52,12.60
2020,08,28,05,53,12.70
2020,08,28,05,54,11.80
2020,08,28,05,55,11.80
2020,08,28,05,56,11.70
2020,08,28,05,57,11.80
2020,08,28,05,58,11.80
2020,08,28,05,59,11.70
2020,08,28,06,00,12.90
2020,08,28,06,01,13.20
2020,08,28,06,02,12.70
2020,08,28,06,03,12.00
2020,08,28,06,04,11.80
2020,08,28,06,05,11.70
2020,08,28,06,06,11.40
2020,08,28,06,07,11.70
2020,08,28,06,08,13.10
2020,08,28,06,09,13.30
2020,08,28,06,39,25.90
2020,08,28,06,40,11.20
2020,08,28,06,41,11.20
2020,08,28,06,42,11.30
2020,08,28,06,43,11.30
2020,08,28,06,44,11.40
2020,08,28,06,45,11.30
2020,08,28,06,46,11.30
2020,08,28,06,48,11.50
2020,08,28,06,49,11.40
2020,08,28,06,50,11.40
2020,08,28,06,51,11.50
2020,08,28,06,52,12.10
2020,08,28,06,53,12.60
2020,08,28,06,54,15.20
2020,08,28,06,55,14.10
2020,08,28,06,56,11.40
2020,08,28,06,57,11.60
2020,08,28,06,58,11.70
2020,08,28,06,59,11.70
2020,08,28,07,00,11.70
2020,08,28,07,01,11.60
2020,08,28,07,02,11.60
2020,08,28,07,03,11.50
2020,08,28,07,04,11.40
2020,08,28,07,05,11.40
2020,08,28,07,06,11.50
2020,08,28,07,07,11.40
2020,08,28,07,08,11.50
2020,08,28,07,09,11.50
2020,08,28,07,10,12.20
2020,08,28,07,11,12.20
2020,08,28,07,12,12.20
2020,08,28,07,16,11.50
2020,08,28,07,17,11.60
2020,08,28,07,18,11.50
2020,08,28,08,31,13.20
2020,08,28,08,32,12.90
2020,08,28,08,33,13.20
2020,08,28,08,34,13.30
2020,08,28,08,35,13.40
2020,08,28,08,36,13.30
2020,08,28,08,37,13.40
2020,08,28,08,38,13.50
2020,08,28,08,39,13.50
2020,08,28,08,40,13.50
2020,08,28,08,41,13.40
2020,08,28,08,42,13.70
2020,08,28,08,43,13.60
2020,08,28,08,44,13.80
2020,08,28,08,45,13.80
2020,08,28,08,46,13.90
2020,08,28,08,47,13.80
2020,08,28,08,48,13.80
2020,08,28,08,49,14.00
2020,08,28,08,50,14.00
2020,08,28,08,51,14.00
2020,08,28,08,52,13.90
2020,08,28,08,53,14.10
2020,08,28,08,54,14.20
2020,08,28,08,55,13.80
2020,08,28,08,56,13.80
2020,08,28,08,57,13.70
2020,08,28,08,58,14.20
2020,08,28,08,59,13.90
2020,08,28,09,00,13.90
2020,08,28,09,01,13.90
2020,08,28,09,02,13.70
2020,08,28,09,03,13.60
2020,08,28,09,04,13.70
2020,08,28,09,05,13.60
2020,08,28,09,06,13.80
2020,08,28,09,07,13.70
2020,08,28,09,08,13.70
2020,08,28,09,14,14.70
2020,08,28,09,15,14.70
2020,08,28,09,16,14.00
2020,08,28,09,17,14.10
2020,08,28,09,18,14.00
2020,08,28,09,19,14.20
2020,08,28,09,20,14.20
2020,08,28,09,21,14.10
2020,08,28,09,22,14.10
2020,08,28,09,23,14.00
2020,08,28,09,24,14.10
2020,08,28,09,25,14.10
2020,08,28,09,26,14.30
2020,08,28,09,27,14.80
2020,08,28,09,47,15.10
2020,08,28,09,48,14.50
2020,08,28,09,49,14.80
2020,08,28,09,50,14.90
2020,08,28,09,51,15.00
2020,08,28,09,52,15.10
2020,08,28,09,53,15.10
2020,08,28,09,54,15.10
2020,08,28,09,55,15.10
2020,08,28,09,56,15.20
2020,08,28,09,57,15.20
2020,08,28,09,58,15.20
2020,08,28,09,59,15.20
2020,08,28,10,00,15.20
2020,08,28,10,01,15.30
2020,08,28,10,02,15.30
2020,08,28,10,03,15.00
2020,08,28,10,04,15.00
2020,08,28,10,05,15.20
2020,08,28,10,37,40.70
2020,08,28,10,38,40.70
2020,08,28,10,39,16.70
2020,08,28,11,05,16.90
2020,08,28,11,06,16.70
2020,08,28,11,07,16.90
2020,08,28,11,08,16.70
2020,08,28,11,09,17.00
2020,08,28,11,10,16.80
2020,08,28,11,11,16.80
2020,08,28,11,12,31.20
2020,08,28,12,32,17.50
2020,08,28,12,33,17.40
2020,08,28,12,34,17.60
2020,08,28,12,35,17.70
2020,08,28,12,36,20.00
2020,08,28,12,37,18.40
2020,08,28,12,38,17.80
2020,08,28,12,39,17.90
2020,08,28,12,40,18.20
2020,08,28,12,56,18.40
2020,08,28,12,57,18.40
2020,08,28,12,58,18.20
2020,08,28,12,59,21.80
2020,08,28,13,00,25.00
2020,08,28,13,01,18.30
2020,08,28,13,02,19.00
2020,08,28,13,03,20.20
2020,08,28,13,04,41.80
2020,08,28,13,05,34.10
2020,08,28,13,06,18.50
2020,08,28,13,07,18.40
2020,08,28,13,08,18.30
2020,08,28,13,09,18.40
2020,08,28,13,10,18.40
2020,08,28,13,33,18.40
2020,08,28,13,34,18.50
2020,08,28,13,35,18.50
2020,08,28,13,36,18.90
2020,08,28,13,37,19.20
2020,08,28,13,38,18.90
2020,08,28,13,39,36.50
2020,08,28,13,40,18.80
2020,08,28,13,41,19.40
2020,08,28,13,42,19.10
2020,08,28,13,43,18.90
2020,08,28,13,44,18.50
2020,08,28,13,45,18.50
2020,08,28,13,46,18.50
2020,08,28,13,47,18.50
2020,08,28,13,48,18.80
2020,08,28,13,49,18.80
2020,08,28,13,50,18.60
2020,08,28,13,51,18.70
2020,08,28,13,52,18.70
2020,08,28,13,53,18.80
2020,08,28,13,54,18.80
2020,08,28,13,55,19.00
2020,08,28,13,56,18.90
2020,08,28,13,57,18.90
2020,08,28,13,58,18.80
2020,08,28,13,59,18.90
2020,08,28,14,00,18.90
2020,08,28,14,01,18.70
2020,08,28,14,02,19.10
2020,08,28,14,03,19.80
2020,08,28,14,04,18.80
2020,08,28,14,05,18.90
2020,08,28,14,06,19.10
2020,08,28,14,07,19.10
2020,08,28,14,08,19.10
2020,08,28,14,09,19.10
2020,08,28,14,10,19.00
2020,08,28,14,11,19.00
2020,08,28,14,12,18.90
2020,08,28,15,49,18.30
2020,08,28,15,50,18.30
2020,08,28,15,51,18.30
2020,08,28,16,29,19.10
2020,08,28,16,30,18.70
2020,08,28,16,31,19.20
2020,08,28,16,32,18.40
2020,08,28,16,33,18.10
2020,08,28,16,34,18.10
2020,08,28,16,35,18.00
2020,08,28,16,36,18.10
2020,08,28,16,37,18.30
2020,08,28,16,38,18.00
2020,08,28,16,39,18.00
2020,08,28,16,40,18.20
2020,08,28,16,41,18.10
2020,08,28,16,42,18.00
2020,08,28,16,43,18.10
2020,08,28,16,44,18.20
2020,08,28,16,45,17.90
2020,08,28,16,46,17.70
2020,08,28,16,47,17.80
2020,08,28,16,48,17.80
2020,08,28,16,49,17.70
2020,08,28,16,50,17.80
2020,08,28,16,51,17.80
2020,08,28,16,52,18.00
2020,08,28,16,53,20.70
2020,08,28,16,54,18.10
2020,08,28,16,55,18.10
2020,08,28,16,56,18.10
2020,08,28,16,57,18.10
2020,08,28,16,58,18.20
2020,08,28,16,59,18.20
2020,08,28,17,00,18.30
2020,08,28,17,01,18.30
2020,08,28,17,02,18.40
2020,08,28,17,03,18.50
2020,08,28,17,04,18.20
2020,08,28,17,05,18.20
2020,08,28,17,06,18.20
2020,08,28,17,07,18.10
2020,08,28,17,08,18.10
2020,08,28,17,09,18.00
2020,08,28,17,10,18.20
2020,08,28,17,11,18.00
2020,08,28,17,12,17.90
2020,08,28,17,13,17.80
2020,08,28,17,14,17.70
2020,08,28,17,15,17.70
2020,08,28,17,16,17.60
2020,08,28,17,17,17.60
2020,08,28,17,18,17.80
2020,08,28,17,19,18.00
2020,08,28,17,20,17.80
2020,08,28,17,21,17.90
2020,08,28,17,22,18.00
2020,08,28,17,23,18.20
2020,08,28,17,24,18.10
2020,08,28,17,25,17.80
2020,08,28,17,26,17.80
2020,08,28,17,27,17.70
2020,08,28,17,28,17.80
2020,08,28,17,29,17.70
2020,08,28,17,30,17.80
2020,08,28,17,31,18.00
2020,08,28,17,32,18.10
2020,08,28,17,33,18.30
2020,08,28,17,34,18.30
2020,08,28,17,35,18.30
2020,08,28,17,36,18.20
2020,08,28,17,37,18.50
2020,08,28,17,38,18.20
2020,08,28,17,39,19.40
2020,08,28,17,40,18.50
2020,08,28,17,41,18.20
2020,08,28,17,42,18.00
2020,08,28,17,43,18.00
2020,08,28,17,44,18.10
2020,08,28,17,45,18.30
2020,08,28,17,46,19.30
2020,08,28,18,11,17.30
2020,08,28,18,12,17.60
2020,08,28,18,13,17.20
2020,08,28,18,14,17.10
2020,08,28,18,15,17.10
2020,08,28,18,16,17.10
2020,08,28,18,17,17.30
2020,08,28,18,18,17.10
2020,08,28,18,19,17.50
2020,08,28,18,20,17.30
2020,08,28,18,21,16.90
2020,08,28,18,22,16.90
2020,08,28,18,23,16.80
2020,08,28,18,24,16.80
2020,08,28,18,25,16.70
2020,08,28,18,26,16.80
2020,08,28,18,27,17.00
2020,08,28,18,28,16.90
2020,08,28,18,29,17.30
2020,08,28,18,30,23.40
2020,08,28,18,31,29.20
2020,08,28,18,32,16.80
2020,08,28,19,29,15.70
2020,08,28,19,30,16.00
2020,08,28,20,05,21.70
2020,08,28,20,49,14.80
2020,08,28,20,50,14.80
2020,08,28,20,51,14.80
2020,08,28,21,08,18.60
2020,08,28,21,09,15.00
2020,08,28,21,30,14.30
2020,08,28,21,31,14.30
2020,08,28,21,33,14.30
2020,08,28,21,34,14.30
2020,08,28,21,35,14.50
2020,08,28,21,36,14.60
2020,08,28,21,49,14.10
2020,08,28,21,50,14.20
2020,08,28,21,51,14.30
2020,08,28,22,12,26.60
2020,08,28,22,13,14.30
2020,08,28,22,23,13.70
2020,08,28,22,24,13.70
2020,08,28,22,56,13.50
2020,08,28,22,57,14.20
2020,08,28,22,58,13.60
2020,08,28,22,59,14.00
2020,08,28,23,03,14.10
2020,08,28,23,04,23.80
